Location: Newark
(40.7119°N, 74.0097°W)
Time: 05:36:02
(UTC+00:00)

Tiangong - Pass Details

Date: 02 July 2021
Orbit: 374 x 386 km, 41.5° (Epoch: 27 July)

Event Time Altitude Azimuth Distance (km) Brightness Sun altitude
Exits shadow 08:07:07 10° 167° (SSE) 1,371 3.5 -12.9°
Drops below altitude 10° 08:07:09 10° 167° (SSE) 1,379 3.5 -12.9°
Sets 08:09:39 0° 146° (SE) 2,230 4.8 -12.6°
